OpenBCM V1.13 (Linux)

Packet Radio Mailbox

DB0FHN

[JN59NK Nuernberg]

 Login: GUEST





  
I0OJJ  > KEPS     01.12.24 06:12l 370 Lines 17642 Bytes #999 (0) @ AMSAT
BID : ORB24336.1
Read: DL5MBW DJ6UX GUEST
Subj: 2Line Orbital Elements 24336.AMSAT
Path: DB0FHN<DB0FFL<OE5XBL<OE6XPE<DB0ERF<IZ3LSV<I0OJJ
Sent: 241201/0411z @:I0OJJ.ITA.EU [Rome] obcm1.08-6-g5b69
From: I0OJJ @ I0OJJ.ITA.EU (Gustavo)
To:   KEPS @ AMSAT
X-Info: This message was generated automatically


QST de W1STR

AMSAT Orbital Elements for Amateur Satellites in TLE Format
From Orbital Analysis Office
New England Sci-Tech STEM Education Center
Natick, MA December 01, 2024
To all radio amateurs


These element sets describe the orbits of various satellites 
in use by the amateur radio community. For details see:
www.amsat.org/keplerian-elements-formats/

A daily update of element sets is available at:
www.amsat.org/tle/daily-bulletin.txt
or without bulletin text:
www.amsat.org/tle/dailytle.txt


AO-07
1 07530U 74089B   24335.79300436 -.00000029  00000-0  10889-3 0  9993
2 07530 101.9895 332.0684 0012349 125.6490  49.1904 12.53683195290159
UO-11
1 14781U 84021B   24335.32659914  .00005399  00000-0  59161-3 0  9993
2 14781  97.7284 299.9629 0006227 244.2177 115.8398 14.88145790173182
AO-27
1 22825U 93061C   24335.43898453  .00000507  00000-0  21146-3 0  9998
2 22825  98.7669  29.7748 0007632 318.1741  41.8857 14.30669012626386
FO-29
1 24278U 96046B   24335.48037848  .00000015  00000-0  48788-4 0  9992
2 24278  98.5870 248.3617 0350926 117.4913 246.2358 13.53223323396920
NOAA-15
1 25338U 98030A   24335.79948672  .00000540  00000-0  24029-3 0  9999
2 25338  98.5544 359.3566 0010023 191.7486 168.3463 14.26811778381195
GO-32
1 25397U 98043D   24335.39819126  .00000428  00000-0  20560-3 0  9996
2 25397  98.9463 304.8076 0002163  60.8753 299.2642 14.24201322371079
ISS
1 25544U 98067A   24335.89338102  .00020426  00000-0  36363-3 0  9999
2 25544  51.6398 209.4788 0006854 286.7491 181.9903 15.50084872484403
NO-44
1 26931U 01043C   24335.50681096  .00000822  00000-0  34008-3 0  9991
2 26931  67.0510 261.7864 0007028 261.4544  98.5762 14.31521292209759
SO-50
1 27607U 02058C   24335.66937510  .00004091  00000-0  54719-3 0  9994
2 27607  64.5559  69.3133 0033299  27.8133 332.4743 14.80412779181169
CO-55
1 27844U 03031E   24334.97854516  .00001198  00000-0  54380-3 0  9995
2 27844  98.6780 339.7558 0010255  29.5076 330.6679 14.23670393111372
CO-57
1 27848U 03031J   24335.47304831  .00001080  00000-0  49797-3 0  9991
2 27848  98.6811 340.3870 0010378  43.7403 316.4595 14.23054798111187
RS-22
1 27939U 03042A   24335.78944664  .00003901  00000-0  63962-3 0  9996
2 27939  98.3068 134.9884 0010655 252.6382 219.8276 14.71282234132766
NOAA-18
1 28654U 05018A   24335.78783445  .00000587  00000-0  33553-3 0  9994
2 28654  98.8623  51.2793 0013370 313.3325  46.6732 14.13437720  6796
CO-58
1 28895U 05043F   24334.81476865  .00006256  00000-0  10617-2 0  9991
2 28895  98.2233 111.3057 0014972 190.7801 169.3085 14.69487231 18767
CO-65
1 32785U 08021C   24335.55907405  .00012909  00000-0  10232-2 0  9999
2 32785  97.7709 300.1078 0012553 139.0187 221.1983 15.00622915900398
AAUSAT2
1 32788U 08021F   24335.17704238  .00085649  00000-0  25033-2 0  9995
2 32788  97.6043 317.7764 0003296  32.8073 327.3374 15.34950600903618
CO-66
1 32791U 08021J   24335.68353326  .00024429  00000-0  14727-2 0  9990
2 32791  97.7088 306.8347 0007316  94.7795 265.4269 15.10733748901678
RS-30
1 32953U 08025A   24335.74628732  .00000055  00000-0  32389-3 0  9991
2 32953  82.5033 345.8886 0020669 101.3418 258.9986 12.43154288749823
PRISM
1 33493U 09002B   24335.45667934  .00111979  00000-0  29314-2 0  9993
2 33493  98.1799  39.1877 0007944  30.7139 329.4568 15.38248399864411
NOAA-19
1 33591U 09005A   24335.76367678  .00000517  00000-0  30021-3 0  9994
2 33591  99.0263  33.1626 0013880 178.8747 181.2459 14.13215558815150
SRMSAT
1 37841U 11058D   24334.93413451  .00000797  00000-0  29023-3 0  9996
2 37841  19.9711 234.1692 0011874 117.2705 329.2192 14.11297375678227
RS-40
1 38735U 12041C   24335.60148869  .00000030  00000-0  14370-3 0  9994
2 38735  82.4774  66.1153 0017235 213.2518 146.7480 12.42621144559840
ZACUBE-1
1 39417U 13066B   24335.29811376  .00017089  00000-0  16109-2 0  9998
2 39417  97.7565 288.1153 0046435 332.7702  27.1083 14.93039222596331
Delfi-N3xt
1 39428U 13066N   24335.60925557  .00018186  00000-0  20609-2 0  9991
2 39428  97.8369 250.0398 0090365 267.7714  91.3150 14.83471709590898
GOMX-1
1 39430U 13066Q   24335.70254380  .00005012  00000-0  80172-3 0  9990
2 39430  97.7049 199.9640 0137463  82.5408 279.1391 14.66033295587423
LO-74
1 39440U 13066AA  24335.56134835  .00010594  00000-0  11481-2 0  9994
2 39440  97.8300 276.1161 0068010  88.8687 272.0320 14.86677062593025
AO-73
1 39444U 13066AE  24335.35017890  .00021629  00000-0  18389-2 0  9991
2 39444  97.7399 291.8430 0042389 309.2725  50.4739 14.97154752594923
DTUSAT-2
1 40030U 14033W   24334.39871438  .00017427  00000-0  12881-2 0  9990
2 40030  98.0316 291.9415 0010510   3.5762 356.5536 15.03235241567475
EO-80
1 40032U 14033Y   24335.62721371  .00017374  00000-0  12809-2 0  9990
2 40032  98.0227 293.1218 0007190 292.9052  67.1413 15.03356934568157
XW-2C
1 40906U 15049H   24335.80197543  .00143193  00000-0  13165-2 0  9991
2 40906  97.4575 359.1793 0006665  67.3065 292.8900 15.67209467510312
LILACSAT-2
1 40908U 15049K   24335.82227554  .00019850  00000-0  63854-3 0  9994
2 40908  97.5190 346.3531 0012755 116.6534 243.6015 15.32199076508956
IO-86
1 40931U 15052B   24331.15516653  .00002068  00000-0  18982-3 0  9992
2 40931   6.0006 275.0072 0013182 221.8228 138.0892 14.78373291495468
ChubuSat-2
1 41338U 16012B   24335.53701784  .00012827  00000-0  72138-3 0  9995
2 41338  31.0015  37.4423 0010784 112.2619 247.9164 15.12013839482769
ChubuSat-3
1 41339U 16012C   24335.56400840  .00011441  00000-0  66114-3 0  9996
2 41339  31.0084  37.0827 0010848 114.6331 245.5438 15.11015886482736
Horyu-4
1 41340U 16012D   24335.26771127  .00038460  00000-0  14855-2 0  9998
2 41340  31.0015 327.0972 0009931 230.3794 129.5972 15.25024154483441
Lapan A3
1 41603U 16040E   24335.83225987  .00008303  00000-0  31034-3 0  9994
2 41603  97.1386 342.2237 0010053 222.4919 137.5543 15.27543720468643
Pratham
1 41783U 16059A   24335.48118211  .00002740  00000-0  50809-3 0  9995
2 41783  97.8292 347.0414 0031243 210.6025 149.3357 14.65715737436892
CAS-2T
1 41847U 16066G   24335.79312218  .00002762  00000-0  40339-3 0  9992
2 41847  98.4445  45.8325 0350445  35.3117 327.0749 14.42477360423502
CAS-4B
1 42759U 17034B   24335.75685580  .00045050  00000-0  10926-2 0  9997
2 42759  43.0149 357.9830 0013121  42.4110 317.7759 15.40247935412977
CAS-4A
1 42761U 17034D   24335.54532229  .00047455  00000-0  11396-2 0  9991
2 42761  43.0188 357.3624 0013669  50.6192 309.5873 15.40519608412959
D-SAT
1 42794U 17036AF  24335.20052481  .00020331  00000-0  12672-2 0  9991
2 42794  97.4949 311.5439 0099690 304.2420  54.9393 15.05458890405652
TechnoSat
1 42829U 17042E   24335.20085503  .00009839  00000-0  81016-3 0  9997
2 42829  97.3855 147.3253 0011453 234.8657 125.1494 14.99224146402024
AO-91
1 43017U 17073E   24334.61457547  .00016212  00000-0  89600-3 0  9996
2 43017  97.5515 204.5836 0195778  97.8895 264.4599 14.99007530380390
S-Net D
1 43186U 18014G   24334.67843669  .00013452  00000-0  87142-3 0  9991
2 43186  97.5766 233.8226 0010196 152.6153 207.5615 15.08212009373412
S-Net B
1 43187U 18014H   24335.47790680  .00015201  00000-0  98346-3 0  9997
2 43187  97.5770 234.5726 0011279 145.9809 214.2144 15.08220930373534
S-Net A
1 43188U 18014J   24334.94475415  .00013223  00000-0  85632-3 0  9991
2 43188  97.5778 234.1743 0010992 148.4666 211.7223 15.08221196373454
S-Net C
1 43189U 18014K   24335.54628017  .00013138  00000-0  85046-3 0  9991
2 43189  97.5792 234.7485 0012898 140.9754 219.2407 15.08218110372090
Ten-Koh
1 43677U 18084G   24335.69967689  .00007465  00000-0  62898-3 0  9993
2 43677  98.0783 134.6187 0013066 184.4989 175.6117 14.98441339331633
PO-101
1 43678U 18084H   24335.76054619  .00004242  00000-0  37618-3 0  9994
2 43678  98.0872 139.0007 0008210 190.9441 169.1602 14.96749038331826
QO-100
1 43700U 18090A   24333.38452296  .00000171  00000-0  00000-0 0  9995
2 43700   0.0163 298.8574 0002025 351.9165 301.2895  1.00274094 22007
MinXSS-2
1 43758U 18099A   24335.58167934  .00028738  00000-0  14670-2 0  9992
2 43758  97.5331  35.9677 0015257 103.9040 256.3891 15.16567152327938
AO-95
1 43770U 18099N   24334.11257959  .00020765  00000-0  12333-2 0  9997
2 43770  97.5239  28.7961 0012715 153.8446 206.3429 15.11261121327423
RANGE-B
1 43772U 18099Q   24335.44937332  .00042119  00000-0  20144-2 0  9992
2 43772  97.5029  34.5106 0004931  57.4982 302.6728 15.18848664327874
RANGE-A
1 43773U 18099R   24334.84856381  .00010848  00000-0  75052-3 0  9993
2 43773  97.4793  22.9005 0013416 125.3121 234.9363 15.05789162327335
MOVE-II
1 43780U 18099Y   24335.46408038  .00086745  00000-0  28038-2 0  9992
2 43780  97.4984  38.2895 0005282 112.8454 247.3345 15.31730603328226
SNUSat 2
1 43782U 18099AA  24335.11779434  .00016766  00000-0  10427-2 0  9996
2 43782  97.4913  27.9577 0014593  94.7987 265.4909 15.09610383327566
SnugLite
1 43784U 18099AC  24335.63689968  .00019058  00000-0  11241-2 0  9999
2 43784  97.4730  27.7754 0005137  98.7658 261.4154 15.11587610327739
ITASat 1
1 43786U 18099AE  24335.41628582  .00018032  00000-0  11515-2 0  9997
2 43786  97.4888  28.2304 0016615 140.9231 219.3201 15.08598153327591
EAGLET 1
1 43790U 18099AJ  24335.40792948  .00012794  00000-0  87788-3 0  9994
2 43790  97.5080  28.6320 0014403 120.6878 239.5771 15.06045039327266
ESEO
1 43792U 18099AL  24335.53439412  .00004903  00000-0  38564-3 0  9995
2 43792  97.4856  24.3427 0010110  87.0353 273.2028 15.01249938327140
CSIM
1 43793U 18099AM  24335.43616395  .00089043  00000-0  29208-2 0  9994
2 43793  97.5133  40.1033 0009181  91.0153 269.2139 15.31219366328063
